Theta_e
311 311 311 311 311 310 310 310 310 310 310 310 310 310 310 310 310 310 311 313 315 315 314 316 317 316 315 315 315 315 315 314 314 314 314 315 315 315 316 317 318 318 318 318 318 316 316 316 316 316 317 318 320 322 320 318 319 320 321 321 320 321 322 322 322 321 320 320 319 316 316 317 317 315 313 314 313 314 315 315 314 314 314 313 314 314 313 313
311 311 311 311 311 310 310 310 310 310 310 310 310 310 310 310 310 310 310 311 312 314 314 314 315 316 316 315 315 315 314 314 314 315 315 315 315 316 317 317 318 318 318 319 319 318 317 317 317 316 317 320 321 322 323 320 318 321 322 321 321 322 322 321 321 320 319 319 319 318 316 316 317 316 313 313 315 315 314 315 314 313 314 313 314 313 313 313
311 311 310 310 310 310 310 310 310 310 310 310 310 310 310 310 310 309 310 310 310 312 314 314 314 314 316 316 316 315 315 314 315 316 316 316 315 316 317 317 319 318 318 319 319 319 318 319 317 317 318 320 321 321 322 321 319 320 321 321 321 322 321 320 319 318 318 318 318 318 316 316 317 316 314 314 316 316 315 316 315 314 314 313 313 313 313 313
310 311 310 310 310 310 310 310 310 310 310 309 310 310 310 310 310 310 310 309 310 310 311 314 315 314 314 316 317 316 315 316 318 318 317 316 316 316 316 317 319 318 318 318 319 319 319 319 318 317 319 320 321 320 320 320 320 320 319 319 321 320 319 319 318 317 317 316 317 317 316 315 316 315 314 315 316 316 317 317 317 316 315 315 314 314 313 312
310 310 310 310 310 311 310 311 310 310 310 310 310 310 310 310 310 310 310 310 310 310 310 311 313 314 314 315 317 317 316 317 321 320 317 316 315 316 316 317 318 318 318 317 318 319 319 318 317 317 319 320 321 320 320 319 318 319 319 319 321 319 319 319 317 316 315 314 315 316 315 315 316 315 314 315 315 317 318 318 317 317 317 316 315 314 314 313
310 310 310 311 311 311 311 311 311 311 310 310 310 310 310 310 310 310 310 310 310 310 310 310 311 313 314 314 315 317 317 319 320 318 317 317 315 316 316 316 317 318 318 317 317 318 318 318 317 318 319 319 321 320 319 319 316 318 320 320 320 318 318 318 316 314 314 314 315 316 316 315 315 315 315 315 316 317 318 317 317 317 316 316 315 314 314 313
310 310 310 311 311 311 311 311 311 311 311 311 310 310 310 310 310 310 310 310 311 310 310 310 310 310 312 314 315 316 318 320 319 317 317 316 315 315 316 316 317 317 318 318 317 317 318 318 318 319 319 320 320 320 319 317 316 317 319 320 318 317 317 317 315 314 313 314 315 314 314 314 315 315 316 315 315 316 316 316 316 316 315 315 314 314 313 313
310 310 311 311 311 311 311 312 312 312 312 312 311 311 311 311 311 310 311 311 311 311 310 310 310 310 311 313 315 317 319 319 317 317 317 316 316 315 315 316 316 316 316 317 317 317 318 319 320 319 319 320 319 319 318 317 317 317 318 319 318 316 316 316 315 313 313 313 314 313 313 314 315 315 315 315 315 315 316 315 315 315 314 314 313 313 313 312
311 311 311 311 311 312 312 312 312 312 312 312 312 312 312 312 311 311 311 311 311 311 311 311 310 310 310 312 316 319 320 319 316 316 317 317 317 316 315 315 315 316 315 316 317 317 317 319 320 319 319 320 318 318 317 317 317 317 317 318 317 316 316 315 315 314 314 314 313 313 313 315 315 314 314 315 315 315 315 315 314 314 313 313 313 312 312 312
311 311 311 311 311 312 312 312 312 312 312 313 313 313 312 312 312 312 312 311 311 311 311 311 310 311 311 313 317 319 319 318 316 316 316 317 317 317 316 314 314 315 315 315 316 316 317 318 319 318 319 319 318 318 317 316 316 315 316 316 316 316 316 315 315 314 314 313 313 313 313 315 314 313 315 317 316 316 315 315 315 313 313 313 312 312 312 311
311 311 311 311 311 311 311 312 312 312 313 313 313 313 313 313 313 313 312 312 311 311 311 311 311 311 311 313 317 318 317 316 315 315 316 317 318 317 316 314 313 315 314 315 315 316 316 317 317 317 318 318 317 317 316 315 315 314 314 314 316 316 316 315 314 314 314 313 313 312 313 314 314 312 314 316 316 315 315 315 314 313 314 314 313 312 312 312
311 311 311 311 311 311 311 312 312 312 313 313 314 314 314 314 313 313 313 312 312 311 311 311 311 311 311 314 317 317 316 315 314 315 315 316 317 317 316 314 313 314 314 315 315 315 315 316 316 317 318 317 318 317 315 314 313 313 313 314 316 316 316 316 316 314 313 313 313 313 313 314 314 313 315 316 315 315 314 314 314 313 313 313 313 312 311 312
312 312 311 311 312 311 312 312 312 313 313 314 314 314 314 314 314 314 314 313 313 312 311 311 311 310 312 316 317 314 313 313 313 314 314 315 316 316 316 314 314 313 314 314 314 315 315 315 315 317 317 317 318 317 314 313 312 313 314 314 315 316 317 317 316 314 313 313 312 313 313 315 316 315 317 317 316 314 313 314 313 313 313 312 313 312 311 312
313 313 313 313 313 313 313 313 313 314 314 315 315 315 315 314 315 314 314 314 314 313 312 311 311 310 313 315 315 313 313 312 313 314 314 315 316 316 316 316 315 314 313 314 314 314 315 315 315 316 316 316 316 314 314 314 313 314 315 314 315 316 317 317 316 313 313 313 312 313 313 315 316 317 318 318 316 314 313 314 314 314 313 312 313 312 312 312
315 315 315 315 315 314 315 315 314 314 315 315 315 315 315 315 315 315 315 314 314 314 313 311 311 311 315 316 314 314 313 312 313 313 314 315 315 316 316 316 315 314 313 313 314 314 314 314 315 316 315 314 314 314 316 316 315 316 315 315 317 317 317 317 315 314 315 313 311 313 314 315 316 317 318 317 316 315 314 315 315 315 314 313 313 312 313 313
313 314 314 315 315 315 315 315 315 315 315 315 315 315 315 315 315 314 314 314 314 313 312 312 312 312 315 316 315 315 314 314 313 313 314 315 315 315 315 315 314 313 313 313 314 314 314 314 315 316 315 314 315 316 317 318 318 318 316 316 318 317 318 318 314 314 315 313 312 313 314 315 316 317 317 316 316 315 315 315 315 315 315 314 313 312 312 312
309 310 311 311 312 313 314 314 315 315 315 315 315 315 315 315 315 314 314 314 313 312 311 313 314 313 314 316 316 315 315 314 314 314 315 315 315 315 314 313 313 313 313 313 313 314 314 315 315 315 315 315 316 317 317 316 316 318 317 317 318 317 316 317 315 313 314 313 313 313 313 314 315 316 316 315 315 314 314 315 314 315 315 315 314 312 311 311
309 309 309 309 309 310 310 311 312 313 314 314 314 315 315 314 314 314 314 313 313 312 311 313 314 314 315 316 315 316 315 315 314 314 315 315 315 314 313 312 313 313 313 314 314 314 315 316 316 315 316 316 316 317 316 316 316 316 317 316 317 317 316 317 316 314 312 313 313 314 314 314 315 315 316 315 314 314 314 314 314 314 314 314 314 314 312 311
312 312 312 311 311 311 310 310 310 311 312 312 312 313 312 312 312 312 313 312 312 314 315 315 315 315 316 316 314 314 314 314 315 315 315 315 314 314 312 312 312 313 315 315 315 315 316 317 317 317 317 318 317 317 317 319 318 316 318 317 316 316 316 318 317 312 312 313 312 313 314 314 315 315 315 316 315 315 315 314 314 314 314 314 314 314 313 312
314 314 314 314 314 313 313 312 312 312 312 312 311 311 311 313 314 314 314 312 312 314 315 315 315 315 316 315 314 313 313 313 314 315 315 315 314 313 312 312 313 314 315 317 317 317 316 316 318 318 318 319 319 318 318 318 318 317 318 317 317 316 316 318 317 311 311 313 313 314 314 314 314 314 315 315 315 314 314 314 314 314 314 314 314 314 314 313
313 313 313 314 314 314 314 314 313 313 312 312 312 311 311 312 314 314 312 311 312 313 312 313 313 313 314 314 313 313 313 314 314 313 314 314 314 313 313 313 314 314 315 317 317 316 316 316 317 318 318 318 318 319 318 318 318 317 317 316 316 317 317 319 316 309 309 311 312 314 313 313 314 313 314 314 314 314 314 314 314 315 315 315 315 315 315 314
311 312 312 312 313 313 313 313 313 313 313 312 311 310 310 310 310 310 309 310 313 313 312 312 312 312 312 312 312 311 312 313 313 313 313 313 313 313 314 314 314 315 316 316 317 316 316 316 317 318 318 317 316 316 316 317 317 317 317 316 316 317 318 319 314 309 308 310 312 313 313 313 313 313 314 314 314 314 314 314 315 315 315 315 316 316 316 314
310 311 311 311 311 311 311 311 311 312 312 311 310 310 309 309 309 308 308 311 313 312 311 311 311 311 311 311 311 311 311 312 313 313 313 312 313 313 314 315 313 316 318 316 316 316 317 317 316 317 317 316 316 314 314 315 316 316 317 316 316 318 319 317 313 309 309 310 311 312 312 312 313 313 314 314 315 315 315 315 315 315 315 316 316 316 316 314
309 309 310 310 310 310 310 309 309 310 311 311 310 309 309 309 308 308 310 312 313 313 312 311 311 311 311 312 312 311 311 312 313 314 313 312 313 313 314 315 314 315 316 316 316 316 317 316 314 315 316 316 316 315 314 315 315 316 317 317 317 318 319 318 315 312 312 312 310 311 313 314 315 316 315 315 315 315 315 314 314 314 314 314 314 314 315 314
310 309 309 309 309 309 309 308 308 309 310 310 310 309 308 308 309 310 311 312 314 315 313 312 311 311 311 311 311 312 311 312 312 312 312 312 313 313 313 314 314 313 315 315 315 315 316 315 313 315 315 315 317 316 316 316 315 316 318 318 318 318 318 319 318 315 315 315 312 312 314 315 315 316 317 316 314 314 313 313 313 313 313 314 314 314 314 314
316 313 310 309 308 307 308 310 309 308 309 310 310 311 310 310 312 312 312 312 314 314 313 313 312 312 313 312 311 311 312 312 312 312 312 311 313 313 313 313 313 313 315 315 315 315 316 313 312 316 316 316 317 316 316 317 315 315 318 318 318 317 318 318 317 315 315 315 313 312 314 315 315 315 316 316 315 314 315 314 314 314 314 314 315 315 315 313
320 319 316 313 310 308 309 311 308 307 311 311 311 312 312 311 313 312 311 311 314 315 314 313 313 314 314 312 312 312 312 312 312 311 311 311 312 312 312 313 314 313 314 316 315 316 316 314 313 315 316 316 316 316 317 317 316 316 316 315 315 315 316 316 316 315 314 315 314 313 314 315 315 315 316 315 314 314 314 315 316 315 315 315 314 316 316 314
321 321 320 318 315 311 309 309 306 306 309 310 311 312 311 310 310 310 310 312 315 316 315 313 312 313 313 312 311 311 311 311 313 312 310 310 311 312 311 312 314 313 313 315 315 315 317 316 315 315 314 315 316 316 317 317 316 315 312 312 313 313 314 314 314 314 314 314 315 315 314 315 316 316 316 315 314 313 313 314 314 315 316 316 316 317 317 315
322 321 321 320 318 315 312 309 307 306 307 309 310 311 311 310 309 309 310 313 316 315 314 313 312 312 312 311 311 310 310 310 312 311 309 310 311 311 311 312 313 314 313 313 315 317 315 312 313 314 315 316 314 311 313 317 316 312 310 311 312 312 312 312 313 313 313 314 315 316 314 315 316 316 315 315 314 313 314 314 314 315 316 316 317 318 317 314
323 322 322 321 320 318 315 312 309 307 307 309 311 310 310 310 310 310 312 314 315 314 313 312 312 313 313 312 312 311 310 310 309 308 309 310 310 310 310 311 312 313 313 313 314 315 311 307 309 313 315 313 310 306 307 311 311 310 311 313 312 312 311 311 312 312 313 316 317 316 315 315 316 316 315 315 314 314 315 314 315 316 316 317 318 317 315 313
323 322 322 321 321 320 316 314 312 309 307 309 311 310 310 310 309 312 314 314 313 314 313 312 313 314 313 314 315 313 311 311 309 308 310 309 309 310 310 312 312 312 313 313 314 315 312 309 310 312 311 310 309 308 307 307 308 311 313 312 314 314 312 312 312 312 314 317 316 316 316 316 315 315 314 315 315 315 316 315 315 316 316 316 318 317 314 313
323 323 322 322 322 321 319 317 315 311 307 308 310 310 310 310 310 312 313 312 314 315 315 315 315 314 314 315 317 314 313 313 310 309 311 310 310 311 311 313 314 314 315 315 316 316 316 314 313 312 309 309 312 312 308 306 307 311 312 312 315 315 315 316 315 314 316 317 315 314 316 317 316 314 314 314 314 314 315 315 315 315 315 316 318 317 314 312
324 324 323 322 322 322 322 320 317 312 307 308 310 309 310 310 311 314 313 311 316 316 315 318 316 315 315 316 317 315 314 315 312 310 312 312 312 312 312 313 315 317 317 316 316 317 317 317 314 313 311 310 312 313 313 311 308 310 312 313 315 316 317 319 318 317 317 316 313 311 313 315 314 313 314 314 314 315 315 315 315 315 315 315 317 316 314 313
325 325 324 323 322 322 322 321 318 313 308 308 309 309 310 311 313 316 315 313 315 315 315 316 316 315 316 316 317 316 315 315 313 311 312 312 311 312 313 313 315 316 316 315 315 316 317 317 315 315 314 312 312 313 316 315 310 310 313 314 315 316 316 317 316 316 316 316 313 310 311 313 312 313 315 315 315 315 315 314 315 315 314 315 315 314 313 313
323 324 324 323 319 320 321 319 316 312 308 309 311 309 310 312 313 314 314 314 314 314 313 314 315 316 316 316 316 316 316 317 315 312 312 313 313 313 314 314 314 315 314 314 315 315 316 317 317 315 313 312 312 314 316 315 313 311 312 314 315 316 316 316 316 315 314 314 314 312 312 312 312 314 315 315 315 315 315 315 314 314 315 314 314 312 311 312
323 324 323 322 319 319 320 317 315 312 308 310 312 310 310 312 313 313 313 314 313 315 314 313 315 316 315 316 316 316 316 316 315 314 313 314 314 314 315 316 315 314 314 315 317 316 315 317 317 311 310 309 308 311 314 314 314 313 312 314 314 315 316 316 317 315 312 313 315 314 313 313 313 315 314 314 314 314 314 314 314 315 314 314 314 312 311 311
324 323 322 322 321 320 319 316 316 312 308 310 312 311 311 312 313 313 312 312 312 315 314 312 314 315 314 315 316 317 315 314 314 314 314 315 315 315 316 316 316 314 314 314 317 318 315 316 316 312 311 307 303 307 310 309 312 312 312 314 313 313 313 313 315 315 314 315 315 314 314 313 313 315 314 313 312 312 313 313 313 314 314 314 314 313 312 311
324 322 321 322 322 322 320 317 316 311 309 310 312 313 313 312 312 312 312 311 312 314 313 311 314 315 314 314 315 317 315 314 314 313 314 315 315 316 316 315 316 315 314 313 316 319 317 316 316 311 310 307 304 308 310 308 308 309 310 311 311 312 313 313 314 314 314 315 315 314 314 314 314 315 314 313 312 312 312 313 313 312 313 314 313 312 312 311
321 320 320 321 321 321 321 317 314 311 309 310 311 313 314 313 314 313 311 311 311 312 311 311 313 314 314 313 314 317 315 314 315 313 313 315 316 317 316 316 317 315 314 313 314 317 315 316 316 308 306 308 306 308 311 310 308 307 307 309 309 311 312 313 314 314 313 314 314 315 315 315 315 315 314 314 313 313 313 313 313 313 313 314 313 312 312 312
320 318 318 320 319 319 320 316 312 310 310 311 312 312 313 313 314 312 310 311 311 311 311 311 312 312 313 314 315 316 315 315 317 315 314 315 315 316 315 315 317 316 314 313 314 315 314 315 316 308 304 308 309 309 311 312 311 308 308 309 309 309 310 311 312 313 313 314 313 314 315 314 314 314 314 314 314 313 314 314 315 315 314 313 313 312 312 312
319 318 317 318 318 318 317 313 310 310 310 311 312 312 312 313 314 312 310 310 311 310 310 312 313 311 312 314 314 314 315 315 316 315 315 315 313 314 314 315 316 316 314 313 313 314 314 314 315 312 308 310 311 312 312 314 314 312 310 310 311 311 311 311 313 313 313 313 314 314 314 314 314 314 314 313 313 313 313 313 314 316 315 313 312 312 312 312
318 318 317 317 317 318 315 311 310 310 309 310 312 312 312 313 314 313 311 310 310 310 311 310 311 312 312 312 312 313 314 314 315 315 315 315 313 313 314 315 315 315 314 313 314 314 315 314 314 314 313 313 313 311 311 313 314 313 312 312 312 312 312 313 314 314 312 312 313 314 315 315 314 314 314 313 313 313 313 313 313 314 314 313 312 311 311 312
316 316 316 315 316 317 314 310 309 309 308 310 311 312 312 313 314 313 312 311 310 310 310 309 309 310 311 311 313 313 312 312 314 314 314 315 314 314 315 315 315 314 313 314 314 314 314 314 313 313 314 314 313 309 307 307 309 311 312 312 313 312 312 313 313 313 313 313 313 313 314 314 314 315 314 313 314 313 313 313 312 313 313 312 312 311 311 311
315 315 314 314 315 316 314 312 310 309 308 308 310 311 312 313 314 314 313 313 311 310 309 309 309 310 310 310 312 312 311 311 311 312 313 313 313 313 313 313 314 314 312 314 315 313 314 314 313 313 313 314 314 311 308 306 307 309 310 311 313 313 313 314 312 311 312 314 313 313 313 313 314 315 314 313 313 313 312 312 312 312 312 312 311 311 311 311
314 314 313 313 313 314 313 313 313 311 309 309 310 311 312 313 313 313 313 313 313 311 310 310 310 309 309 310 310 310 311 311 310 310 312 313 312 311 311 311 314 314 312 313 313 311 313 314 313 313 313 313 314 313 312 310 307 308 310 311 312 313 313 313 312 311 312 313 312 313 313 312 312 313 313 312 313 312 312 313 312 311 311 311 311 311 311 311
314 314 312 310 311 312 311 312 312 312 311 310 310 311 311 312 313 313 313 313 313 312 311 311 309 308 309 310 309 309 309 310 310 310 311 312 312 311 308 308 312 313 311 311 310 310 313 314 312 312 312 313 313 313 314 313 309 308 310 310 311 313 313 313 312 312 313 312 312 312 313 313 313 312 312 312 312 312 312 313 312 311 310 310 310 310 310 310
312 314 313 310 310 310 310 310 310 311 313 312 311 312 312 312 313 313 313 313 313 313 312 311 309 309 311 310 310 310 310 310 310 310 310 310 310 310 307 306 308 310 309 309 308 310 312 312 311 311 311 312 312 312 313 313 311 310 311 310 310 312 313 314 313 312 312 312 312 313 313 314 313 312 312 312 312 312 312 312 313 312 311 310 309 309 309 309
310 313 313 312 312 311 310 309 309 309 311 312 312 313 313 313 313 314 314 313 313 313 313 313 311 310 311 311 312 312 312 311 311 310 310 310 310 310 309 308 308 307 307 307 307 309 310 310 311 312 312 311 312 311 311 312 311 312 312 312 311 311 312 313 312 312 312 312 312 312 313 313 313 312 312 312 312 312 312 312 312 312 311 311 309 308 308 308
308 310 311 311 312 313 311 310 309 309 309 310 311 312 313 314 314 314 315 314 313 313 313 314 313 312 311 311 312 313 313 314 314 312 311 311 311 311 311 311 309 305 305 308 308 308 309 310 310 311 311 311 311 311 311 311 311 312 312 312 312 312 312 312 312 311 312 312 312 312 312 312 312 312 311 311 311 311 312 312 312 311 311 311 310 309 309 309
307 308 309 309 309 310 310 310 310 310 309 309 310 311 312 313 313 314 314 315 314 314 313 314 314 314 313 312 312 312 313 314 316 316 314 313 313 312 312 313 311 307 306 309 310 309 309 310 310 310 311 311 310 311 311 311 312 312 312 312 312 311 311 311 311 312 312 312 311 312 312 312 312 311 311 311 311 311 311 311 311 311 311 310 310 310 310 309
304 305 306 306 306 307 309 310 310 310 310 310 310 310 311 312 312 313 314 315 315 315 314 313 314 314 315 315 313 313 313 313 313 314 315 315 315 313 312 313 313 310 308 309 310 310 309 309 310 311 311 311 311 311 311 311 311 311 311 311 311 310 310 311 311 311 312 312 312 312 312 311 311 311 311 311 311 311 311 311 310 310 310 310 310 310 309 309
301 301 302 303 304 305 307 308 309 310 310 310 310 310 310 311 312 312 314 314 315 315 315 314 314 314 315 315 315 314 313 313 313 313 314 315 314 312 311 311 311 311 310 309 309 309 309 309 310 311 311 311 311 311 310 311 312 311 311 311 310 310 310 310 311 311 311 311 312 312 312 311 311 311 311 311 310 310 311 310 310 310 310 310 310 310 310 310
Wind_Speed
5 5 6 6 7 7 7 8 8 8 9 9 9 10 10 10 10 8 7 7 7 8 7 6 5 7 8 8 8 9 8 9 9 10 12 11 10 9 8 6 4 2 1 1 2 3 4 5 7 8 6 7 7 7 7 4 5 5 4 5 6 6 4 1 4 4 3 5 2 7 8 9 6 7 10 11 12 15 14 15 15 15 18 22 25 21 18 21
6 6 6 6 7 7 7 8 8 9 9 9 10 10 11 11 11 10 9 7 6 7 7 7 6 6 8 9 10 9 10 10 11 14 15 12 10 10 9 7 5 3 2 1 1 2 5 6 7 9 8 9 8 7 7 5 5 6 5 5 6 6 2 2 5 5 4 6 2 3 7 9 7 5 9 8 10 15 16 17 16 17 19 23 30 28 25 26
6 6 6 6 7 7 8 8 8 9 9 10 10 11 11 11 11 11 10 9 7 6 7 7 7 7 7 9 10 10 11 12 15 18 17 14 12 11 10 9 7 5 3 2 2 2 5 6 7 9 9 9 8 6 6 6 6 6 5 6 5 3 3 3 5 6 6 6 5 5 5 8 8 5 8 7 12 14 15 17 15 19 23 25 30 32 31 30
7 6 7 6 7 7 7 8 9 9 9 10 10 11 11 12 12 12 11 10 9 8 7 7 7 8 7 7 9 10 10 12 15 19 18 15 14 13 11 10 8 7 5 3 3 3 4 5 6 9 9 9 7 6 7 8 6 3 5 7 4 3 4 4 3 4 4 4 8 7 3 7 9 8 9 9 10 12 16 19 18 22 24 23 28 30 30 32
8 7 7 7 7 7 7 8 8 9 9 9 10 10 11 12 12 13 12 12 11 10 8 7 7 8 8 7 7 8 7 6 7 12 14 15 15 13 13 12 10 9 6 5 5 4 5 4 4 7 8 9 7 7 8 9 6 3 8 11 6 3 5 2 1 3 3 4 8 8 6 6 6 9 14 14 11 12 11 12 16 20 19 16 23 26 27 29
9 9 8 8 7 7 7 7 8 8 9 9 10 10 11 11 12 13 13 13 12 12 10 8 7 7 8 7 7 8 8 5 3 4 8 13 15 14 13 13 12 10 8 7 5 4 4 3 6 8 8 8 7 7 5 8 8 6 9 11 8 6 7 3 1 4 4 5 8 8 8 5 5 10 15 18 22 22 14 12 13 13 15 15 18 22 24 27
11 10 10 9 9 8 8 8 8 8 8 8 9 10 10 11 11 12 13 13 13 13 12 11 10 8 8 8 8 8 12 13 12 7 6 10 14 14 14 14 13 12 10 8 6 5 5 5 8 8 8 8 7 8 4 5 8 7 8 8 7 6 9 7 3 6 5 7 10 7 7 8 11 13 11 20 29 28 21 21 22 20 20 19 19 23 25 26
13 13 12 12 11 11 10 10 9 9 9 9 9 9 10 10 11 12 13 14 14 14 13 12 12 9 8 8 8 8 13 19 20 16 12 12 14 15 16 15 14 12 10 9 6 6 7 8 8 6 8 7 4 5 3 4 9 10 10 8 5 5 9 9 6 8 7 9 9 8 10 13 16 12 12 25 30 27 25 23 26 29 27 24 24 26 26 27
15 15 14 14 14 13 13 12 11 11 10 10 10 10 11 11 11 12 13 14 15 15 14 14 13 10 8 8 6 8 13 17 17 16 16 16 16 17 18 16 15 12 10 10 7 6 7 7 7 4 8 7 5 5 2 4 6 7 8 7 6 8 9 9 10 11 10 10 8 9 14 15 15 9 15 31 33 28 25 23 23 26 29 28 28 28 29 29
17 17 17 16 16 16 15 15 14 13 12 12 12 12 13 13 13 13 14 15 15 16 15 15 13 10 9 8 7 7 10 13 12 12 14 16 17 18 19 17 15 12 10 10 8 7 7 8 8 7 10 8 7 5 3 5 3 4 8 10 11 13 13 10 12 13 10 10 11 12 13 13 10 5 13 22 21 20 20 21 22 22 26 27 28 29 29 31
20 19 19 19 18 18 17 17 16 15 15 14 14 14 14 15 15 15 16 16 17 17 17 16 13 10 9 8 9 10 11 12 11 11 12 13 15 16 18 17 15 12 10 10 10 10 9 10 10 9 7 3 4 5 5 7 6 6 8 11 14 16 15 14 14 13 10 8 12 12 11 13 8 6 21 23 14 14 14 17 20 22 25 23 24 27 28 31
22 21 21 21 20 20 20 19 19 18 17 16 15 15 15 17 17 17 18 18 18 18 18 16 12 9 9 10 15 16 17 17 15 14 13 13 14 15 16 16 15 14 12 9 11 12 11 11 10 8 7 5 5 3 4 6 6 7 7 10 14 13 14 17 16 13 11 6 9 7 8 13 12 15 34 32 21 18 14 15 18 21 25 23 24 26 28 30
24 23 23 23 23 23 22 22 21 21 20 19 18 17 16 18 18 18 18 19 19 20 19 16 12 9 8 11 16 18 17 18 18 18 17 15 14 14 15 16 16 16 14 12 12 12 11 11 9 9 9 8 7 5 5 4 4 7 7 7 10 11 12 13 12 10 10 7 9 7 7 11 13 23 33 25 20 20 16 17 19 20 23 25 26 26 29 31
26 26 26 26 26 25 25 24 24 24 23 22 21 20 19 19 19 19 19 19 20 20 20 17 12 8 9 13 17 18 18 17 17 18 18 16 15 15 15 15 16 15 14 14 13 12 11 11 10 10 10 9 7 6 7 5 5 6 5 4 6 9 7 6 9 10 9 6 9 8 7 11 12 18 23 18 18 18 16 17 19 20 22 25 28 29 31 33
28 28 28 28 28 28 27 27 27 27 26 25 24 23 22 21 21 20 20 20 20 20 20 17 12 8 10 15 18 17 17 17 18 18 17 17 15 14 14 14 14 14 14 13 13 11 11 10 9 8 5 5 5 6 8 7 6 6 5 6 7 7 6 6 10 12 8 4 11 10 6 10 15 12 9 16 18 15 16 17 16 19 21 24 28 31 33 35
30 30 30 31 30 30 30 29 29 29 29 28 26 25 25 24 24 23 23 22 21 21 18 15 12 9 8 13 16 16 17 17 17 16 16 16 15 13 13 12 12 12 12 12 11 10 10 8 7 8 5 4 5 6 7 7 7 7 7 8 8 8 9 5 7 10 8 4 11 13 8 9 11 7 4 15 17 15 15 17 18 22 24 24 25 30 35 36
29 29 30 31 31 32 32 31 31 31 31 30 29 28 27 27 27 26 26 24 22 19 15 11 9 8 10 14 15 16 18 17 15 15 14 14 14 13 12 11 11 12 10 10 10 8 8 6 4 6 7 6 6 5 5 7 7 6 6 7 9 11 11 7 3 6 8 6 10 14 12 14 15 14 12 13 16 16 17 20 24 27 30 28 25 27 33 36
26 26 28 29 29 30 30 31 32 32 32 32 31 30 29 29 29 28 27 24 18 14 12 9 6 4 9 15 13 12 15 14 12 13 12 11 13 13 12 11 10 9 8 7 8 8 7 5 3 4 6 7 6 6 6 8 9 10 8 7 9 10 11 12 5 5 10 8 10 12 13 18 19 19 22 21 17 17 19 22 26 31 33 30 26 27 30 35
26 26 26 26 27 28 27 28 29 30 31 31 30 30 30 28 26 25 22 18 12 7 6 7 11 5 5 9 12 13 14 12 9 11 12 12 12 12 12 10 8 9 7 5 7 9 7 4 4 6 7 9 10 11 11 13 14 14 12 8 10 11 11 15 7 5 9 8 10 15 16 18 19 18 20 24 24 22 23 24 26 31 32 28 26 28 28 32
26 27 27 27 27 27 27 27 28 28 28 28 27 26 22 17 13 12 11 14 16 14 13 10 12 13 12 13 16 15 14 13 11 11 11 11 11 10 11 9 7 8 8 7 6 7 6 5 7 9 11 12 12 13 16 16 13 11 10 9 12 12 12 16 8 5 6 5 10 16 17 19 20 19 18 23 25 23 24 25 27 32 30 25 25 27 26 28
25 26 27 27 28 28 27 27 27 27 26 26 25 20 13 9 7 6 6 12 19 20 21 20 19 21 22 21 20 19 16 13 14 16 14 12 11 9 10 11 7 7 10 9 4 4 5 7 11 16 16 12 8 7 12 14 12 10 10 10 11 11 13 15 6 5 6 4 9 14 16 19 19 17 18 22 22 20 23 25 27 31 29 26 25 26 23 20
24 24 25 26 27 26 26 27 26 26 24 23 22 16 13 14 14 13 11 11 16 20 22 23 25 27 28 27 27 27 19 12 14 19 18 16 15 11 10 12 9 7 8 8 3 3 6 10 17 19 10 4 3 4 8 12 12 10 8 7 10 9 11 12 2 6 5 4 8 11 14 17 18 19 19 21 20 21 28 29 29 30 26 26 26 23 18 17
21 21 22 24 24 24 24 24 24 23 22 21 18 15 15 15 13 13 11 9 14 21 23 25 27 28 28 29 30 27 21 17 16 18 22 19 18 16 13 11 11 9 8 10 9 7 7 9 13 12 5 5 7 5 6 9 9 9 7 7 9 8 8 8 2 3 5 7 7 12 12 14 17 18 19 24 26 24 27 29 29 29 26 28 29 21 14 17
17 16 18 20 20 20 19 20 19 20 20 18 16 14 13 11 10 9 8 8 10 14 21 25 24 26 27 26 26 23 21 20 16 15 23 23 18 15 15 13 12 11 10 14 15 13 13 8 2 1 3 7 9 6 7 8 6 8 10 10 11 10 11 10 3 3 7 8 4 9 12 11 12 14 13 15 18 17 18 19 22 28 31 32 33 28 18 17
14 14 14 15 16 15 15 16 15 16 16 14 13 11 10 7 5 5 5 8 8 8 14 18 18 22 26 25 24 19 14 17 19 19 21 23 20 11 9 11 11 12 14 17 15 14 16 7 5 3 4 6 8 7 8 8 6 9 11 14 16 14 14 12 6 7 8 6 1 4 11 8 5 8 8 5 6 8 9 11 15 26 31 27 28 29 21 18
14 14 13 13 14 13 12 11 10 11 10 10 10 8 6 4 2 3 4 6 7 5 6 9 10 12 15 19 21 15 6 10 20 24 20 21 24 14 5 7 9 9 10 11 10 8 8 3 4 6 7 6 8 10 10 9 7 8 4 6 11 13 13 12 9 5 6 7 0 3 8 9 3 5 7 5 6 8 7 8 12 18 22 22 27 26 18 19
16 16 15 14 13 12 9 7 9 10 7 8 7 5 5 4 2 3 3 7 8 6 8 8 8 9 9 11 17 14 2 4 10 16 19 20 23 16 8 7 7 6 2 2 5 4 5 5 3 6 7 7 9 10 9 11 8 5 1 3 2 5 8 8 7 6 6 9 4 4 4 12 8 5 9 9 8 8 8 11 12 13 18 23 28 27 19 20
17 17 18 16 14 13 9 7 9 9 8 9 6 7 6 6 5 3 1 8 4 7 7 6 7 9 8 10 20 13 3 2 4 8 19 22 19 12 11 13 10 7 7 6 8 2 4 6 6 8 7 7 8 3 3 11 9 1 3 3 3 1 2 2 4 6 6 9 7 6 7 9 11 4 11 12 11 11 12 14 14 14 18 19 21 23 20 18
19 19 20 19 17 14 11 9 7 7 9 7 7 8 9 10 5 2 3 6 1 6 4 7 7 7 7 10 15 10 4 2 0 4 14 17 17 10 5 10 10 7 7 10 10 2 3 1 3 7 8 7 3 4 4 5 5 2 4 4 5 3 1 1 4 5 6 8 9 8 10 7 12 3 9 7 8 10 11 12 13 14 18 17 16 18 18 16
21 22 22 22 20 16 13 10 7 7 7 8 9 11 12 9 3 3 8 6 1 3 4 6 6 7 11 9 7 9 5 1 2 7 8 6 12 9 3 3 5 6 5 8 10 5 2 4 2 4 6 2 5 6 6 3 2 5 4 2 2 2 2 2 4 2 5 10 10 12 16 11 10 1 8 6 8 11 9 8 10 10 13 14 12 14 16 16
23 23 23 24 22 18 14 12 11 8 7 11 12 15 12 4 1 7 9 1 3 2 5 6 6 8 13 11 6 8 8 5 4 9 6 3 7 9 4 2 3 4 6 7 9 8 6 5 2 3 3 4 5 3 4 4 1 3 3 2 2 4 2 3 4 3 6 10 5 12 19 17 11 4 6 6 9 13 9 6 9 9 10 10 9 10 12 14
26 25 26 26 25 22 18 16 13 9 9 13 15 15 8 2 5 11 5 5 1 6 7 6 8 8 11 10 6 6 7 6 9 10 7 5 6 8 8 7 6 4 6 6 6 6 6 8 7 4 3 7 6 2 2 2 2 4 4 4 4 5 3 5 5 4 8 7 2 7 11 13 13 10 8 8 7 11 9 6 10 10 10 11 8 9 12 13
29 29 30 31 30 28 24 19 14 10 9 16 17 11 4 4 9 10 7 4 2 3 4 4 7 8 8 8 6 6 4 4 10 10 7 6 5 7 10 11 7 3 5 4 3 4 3 3 9 7 3 10 12 7 5 4 7 8 7 6 6 5 5 7 6 6 9 6 3 5 3 6 9 9 14 18 15 13 10 10 14 15 16 16 13 13 15 14
32 32 35 36 35 33 28 23 17 12 12 18 15 7 5 10 10 4 8 11 4 2 3 4 6 8 8 7 5 7 6 5 10 10 7 7 5 7 10 13 12 5 2 2 3 5 6 6 9 10 4 13 18 12 6 3 7 10 7 6 7 6 6 7 6 8 8 6 1 4 2 5 5 1 9 15 17 17 14 15 19 20 22 21 17 17 18 17
33 34 38 38 37 37 34 27 18 12 15 18 9 5 8 11 8 3 7 9 4 3 3 2 5 8 8 7 4 6 7 5 9 9 7 9 8 8 8 11 15 10 3 4 4 4 7 9 7 7 3 13 14 9 4 4 4 7 5 6 7 6 7 8 9 7 4 7 6 5 4 7 7 5 5 6 8 14 14 16 18 17 22 23 19 22 23 21
33 36 39 40 41 41 37 30 20 15 20 16 5 7 11 10 6 3 3 4 4 6 6 2 5 6 7 6 5 7 5 3 8 7 6 10 10 11 9 7 14 15 10 7 3 3 5 5 5 5 1 6 4 2 4 2 2 5 6 7 3 1 3 7 9 3 1 7 8 5 7 8 9 11 7 10 9 12 12 14 14 14 20 21 20 24 27 25
37 38 41 43 44 43 40 33 24 21 24 16 7 10 11 9 8 6 2 1 1 6 7 5 7 7 8 6 7 10 7 3 7 6 5 7 8 12 12 7 12 18 17 12 4 4 5 4 3 4 2 2 3 3 1 2 1 4 4 4 2 2 0 4 7 4 4 10 9 9 13 11 10 8 8 14 13 13 14 14 12 13 16 16 19 25 28 28
40 40 42 46 48 46 43 36 29 27 23 11 9 14 10 8 13 11 5 4 2 6 8 9 7 8 9 9 7 11 11 6 8 7 6 6 6 10 13 9 10 17 21 18 7 3 2 3 3 1 1 3 3 1 3 2 2 1 2 1 1 2 4 5 6 5 7 9 9 15 18 14 12 8 5 13 15 15 16 14 10 11 12 13 20 26 28 27
37 33 33 42 46 45 44 39 33 29 18 7 10 13 8 9 14 12 9 9 7 8 10 11 9 8 10 10 7 9 13 9 9 7 7 7 5 8 13 9 10 15 20 18 9 4 3 4 4 1 2 3 3 4 5 5 4 1 3 3 1 2 3 5 5 5 7 8 9 14 16 13 10 8 7 11 15 16 16 13 10 11 12 15 21 27 29 27
28 19 18 30 33 33 40 39 33 24 12 7 11 9 7 8 9 8 11 12 9 8 9 11 11 11 10 10 7 6 9 9 9 8 8 8 7 7 12 11 7 10 16 16 11 6 2 4 6 1 1 3 5 7 9 10 9 5 5 6 5 3 1 2 5 6 7 7 7 9 13 14 5 1 5 8 11 12 10 8 9 9 12 17 22 26 27 25
21 10 10 21 20 21 34 33 20 12 7 5 9 9 9 9 8 8 13 13 9 8 8 7 9 11 10 9 9 7 7 7 9 9 7 9 11 7 10 14 9 7 9 10 9 7 3 5 7 3 3 7 7 8 11 12 10 9 9 9 10 9 5 4 7 7 4 5 8 7 11 16 4 6 5 6 5 5 5 5 7 7 12 18 21 23 23 24
15 6 6 15 14 19 32 22 7 8 7 7 12 9 7 7 8 7 8 10 9 7 5 4 8 10 9 11 12 9 7 7 8 10 8 9 14 9 10 18 16 12 11 6 8 11 6 2 6 8 7 7 5 2 2 3 3 4 7 9 10 9 9 9 8 5 3 5 8 8 11 17 7 7 4 1 1 4 5 6 8 8 13 17 20 22 23 24
12 10 10 13 15 24 26 9 1 7 5 7 12 11 10 7 5 6 7 9 8 4 3 5 8 9 9 9 10 7 6 8 9 10 9 7 11 11 8 15 15 11 10 6 5 6 3 2 6 8 5 6 4 0 2 3 0 4 7 8 8 9 10 9 4 1 2 5 8 8 9 15 8 5 1 9 8 8 9 12 14 13 14 19 22 24 23 22
14 16 14 16 23 29 21 6 4 8 6 6 8 12 15 11 9 10 9 8 9 6 6 9 8 9 9 6 5 7 8 8 8 10 10 6 7 9 9 13 13 10 8 4 2 7 4 2 6 6 5 6 6 5 3 2 4 6 8 9 11 12 11 5 1 0 4 12 16 11 8 13 10 0 5 14 11 7 9 16 20 19 19 22 22 24 24 23
11 10 12 25 38 36 20 9 8 8 8 10 11 12 12 9 12 18 14 11 12 10 8 7 4 4 7 5 5 10 11 9 8 8 7 5 4 3 6 12 12 11 10 5 3 11 7 4 6 7 9 8 10 12 6 3 5 6 8 11 13 15 14 8 5 5 9 17 19 13 11 15 16 15 18 20 15 10 13 18 18 17 21 22 21 24 25 25
8 5 5 16 34 35 23 16 12 6 8 13 10 9 13 10 11 19 18 12 14 17 12 7 2 2 5 7 9 13 14 14 11 8 6 6 5 1 0 5 9 12 13 9 5 9 3 3 11 14 15 13 15 17 8 2 6 8 10 13 12 14 17 12 7 9 13 13 12 14 18 19 18 21 25 25 22 20 22 23 19 15 18 20 22 25 26 27
8 4 3 6 15 20 18 16 11 5 8 12 7 6 14 15 10 13 15 13 15 18 12 6 5 7 8 10 11 11 12 14 13 12 11 10 10 8 5 3 6 11 10 6 6 6 1 6 15 20 23 21 20 23 20 14 11 11 12 14 14 15 15 13 15 17 14 9 10 17 23 21 16 18 24 27 25 23 24 24 23 21 19 19 21 24 26 28
10 6 7 7 7 7 8 15 17 11 10 11 7 7 14 17 13 11 12 13 15 16 9 5 12 16 16 15 12 10 11 12 11 12 12 12 14 14 9 6 6 10 8 3 4 4 3 9 14 17 21 21 19 21 22 22 20 14 13 14 15 16 17 19 24 21 13 12 16 20 23 23 17 18 25 27 25 24 27 32 34 32 29 21 15 17 22 26
14 12 14 14 9 5 10 22 25 19 16 13 10 11 14 17 18 16 11 9 9 13 13 11 14 19 22 21 16 11 11 11 11 12 13 14 15 12 9 8 6 6 7 5 3 3 3 7 12 15 17 17 18 19 21 24 23 18 14 12 10 12 19 25 24 14 14 22 24 23 27 26 18 19 26 30 33 34 35 40 41 36 32 26 18 19 28 34
14 14 14 15 12 9 13 18 16 12 14 14 11 11 13 17 20 18 13 12 9 9 14 17 18 20 21 21 20 18 17 17 18 18 15 14 13 10 8 9 6 3 4 4 2 2 4 9 11 11 12 15 18 21 22 21 17 15 15 13 13 17 23 25 18 10 15 23 24 24 26 21 17 22 27 31 37 37 33 35 34 31 34 34 28 27 35 40
16 17 16 14 10 8 11 10 8 8 9 10 10 11 13 17 20 18 16 20 20 14 14 19 21 20 20 21 20 20 22 24 25 26 24 20 13 7 7 8 7 5 3 4 3 2 4 8 7 6 9 13 16 21 22 18 15 15 16 17 21 25 24 21 19 16 18 20 21 21 18 14 17 24 25 26 29 28 28 29 26 29 38 38 30 27 32 38
18 18 16 13 7 5 8 7 7 9 8 8 10 12 13 16 18 17 16 18 24 25 22 20 18 15 15 19 23 27 32 33 34 36 36 31 19 9 9 11 12 9 6 5 4 3 4 6 6 7 10 12 15 20 19 14 11 11 15 24 31 29 24 22 24 26 25 20 17 15 12 13 18 20 20 24 26 26 28 24 20 26 37 36 29 27 32 37
Wind_Direction
344 350 355 359 358 0 2 2 4 5 6 5 5 4 4 5 3 3 360 352 349 348 344 330 304 277 266 267 265 260 258 258 260 258 251 239 233 232 225 223 208 203 231 258 238 209 223 227 230 234 228 228 226 223 234 232 200 203 232 249 255 264 273 313 272 279 314 305 164 165 192 222 222 178 212 232 228 236 240 239 232 232 236 237 243 243 244 251
329 334 341 347 346 348 350 353 355 356 357 357 359 360 0 2 3 3 359 353 340 335 336 331 321 293 274 265 264 266 266 268 271 265 253 238 232 227 220 221 210 213 231 238 230 201 229 236 234 232 220 222 227 224 232 223 199 221 251 255 258 278 315 1 295 280 284 291 277 185 206 227 237 178 190 221 232 225 231 238 228 231 236 237 245 242 242 250
316 323 329 334 336 340 342 345 347 349 351 350 352 352 354 356 358 1 357 355 345 331 323 319 320 311 292 266 259 262 268 279 277 266 252 236 230 226 222 224 217 223 234 238 250 219 236 253 243 227 222 229 218 210 223 214 218 230 240 256 266 306 320 282 266 265 274 281 272 254 218 222 241 199 174 220 245 232 229 235 222 225 231 230 241 244 240 244
309 314 319 325 329 333 335 340 341 344 346 347 348 347 349 349 351 354 355 354 348 339 322 311 309 309 307 280 261 257 270 285 273 261 253 237 230 227 225 228 224 229 234 249 263 253 275 290 248 218 227 237 208 205 221 207 216 207 213 256 302 10 306 277 237 260 269 270 267 262 231 236 240 209 201 228 251 246 239 239 229 228 235 227 230 243 244 241
305 309 314 318 322 327 330 334 335 339 342 343 346 345 346 346 346 348 350 350 346 343 332 317 304 300 305 291 269 253 256 281 268 259 251 233 230 229 227 231 229 232 235 244 260 267 289 298 240 212 229 240 207 213 224 201 207 235 236 254 286 295 280 295 119 250 249 253 260 249 244 246 227 213 223 229 238 247 247 246 236 231 242 235 226 240 246 241
301 305 307 311 316 319 322 326 329 332 335 339 342 343 344 343 344 343 345 345 344 343 338 329 313 298 295 290 278 245 227 250 313 295 248 226 229 231 231 235 232 236 238 242 258 269 276 258 223 217 233 245 224 223 212 187 208 248 251 250 260 255 258 274 145 243 243 240 246 241 250 245 226 240 234 229 235 243 251 256 248 232 237 244 235 239 244 244
298 301 302 305 308 310 313 316 320 322 326 331 334 337 338 338 339 339 339 339 340 341 338 334 326 311 292 281 275 242 226 248 268 278 259 231 233 235 237 240 238 240 240 246 261 264 263 245 236 238 249 256 244 234 193 178 211 239 265 260 251 242 248 256 244 246 241 235 243 247 259 244 239 255 250 238 239 242 249 256 257 252 245 247 246 244 248 249
296 298 300 302 304 306 307 308 310 313 315 319 323 326 327 329 331 332 333 333 335 336 335 333 328 321 297 274 270 251 234 249 262 264 261 247 242 243 243 244 244 245 244 248 252 252 263 261 256 260 261 264 273 248 198 216 222 224 256 274 257 241 248 250 242 243 237 235 243 246 251 249 248 264 270 252 249 247 246 251 256 258 255 249 249 250 251 250
292 294 296 298 300 302 303 304 306 306 307 310 313 315 316 318 321 324 326 326 328 330 331 329 325 319 299 274 264 261 247 255 267 265 258 250 248 248 247 245 246 248 249 252 251 253 267 273 265 271 281 287 293 271 207 240 236 225 264 288 268 255 257 247 240 243 237 233 224 230 245 250 249 264 271 257 256 256 247 244 247 253 256 251 248 248 249 249
288 289 291 293 294 297 298 300 300 301 303 304 305 309 312 312 315 318 320 322 322 324 326 325 322 312 294 271 246 256 261 262 268 264 256 251 249 249 246 242 244 249 252 257 257 258 266 276 275 278 288 285 268 258 213 244 287 311 291 290 272 264 263 245 244 245 235 235 220 223 248 251 235 228 262 257 255 253 238 235 235 238 250 250 247 245 246 250
285 286 288 289 291 292 293 295 296 297 298 299 301 303 307 309 311 313 315 318 318 320 322 321 320 304 284 263 236 249 269 269 270 266 258 253 250 250 246 239 242 248 252 260 261 261 264 274 280 281 282 274 261 249 235 254 284 312 303 292 273 262 256 238 239 236 220 234 216 219 257 252 217 204 249 250 246 246 222 221 226 230 244 245 243 242 243 247
283 285 286 287 288 289 290 292 292 293 294 294 296 297 302 304 306 309 310 314 316 318 319 318 317 299 279 256 242 255 270 271 273 269 259 255 254 252 247 241 244 248 251 258 262 265 268 275 278 271 269 283 289 268 252 260 272 294 293 288 280 270 259 237 230 219 207 210 183 196 269 249 212 219 249 250 241 243 224 216 224 232 245 244 240 239 240 244
283 284 285 286 286 287 288 289 289 290 291 291 292 293 296 297 300 304 305 309 312 315 317 316 311 293 272 255 254 265 273 272 271 267 260 255 254 252 249 245 246 249 251 250 257 264 266 273 271 260 265 273 277 277 286 271 257 283 268 266 282 281 268 231 208 185 192 199 162 176 269 260 220 219 243 248 229 231 222 221 229 234 243 245 242 238 239 243
282 282 283 284 285 286 286 288 288 288 288 289 290 291 292 293 295 297 300 304 307 311 312 310 303 281 257 260 270 273 272 271 266 260 256 252 251 253 251 248 247 246 248 248 254 261 262 269 266 258 258 255 264 280 279 247 216 257 258 242 256 268 269 185 168 166 182 193 166 181 253 272 262 237 236 229 216 222 223 227 231 235 240 243 246 240 239 243
279 280 281 282 283 284 285 287 287 287 288 288 288 290 292 292 292 294 297 300 303 306 305 301 293 271 260 269 275 275 272 267 261 257 253 247 247 251 248 246 245 243 244 245 249 254 259 264 258 257 256 239 253 271 269 254 228 230 243 255 241 242 254 192 175 186 196 176 173 191 240 259 272 278 226 200 209 220 232 241 238 240 242 240 243 243 242 243
274 276 278 280 281 282 284 285 286 287 287 288 289 290 292 293 294 295 296 298 301 300 297 293 281 261 263 272 271 274 271 262 260 257 249 244 243 244 244 241 239 239 240 242 246 250 254 254 249 254 253 240 245 252 268 271 255 225 224 262 259 251 265 234 176 198 210 155 178 207 250 260 264 287 175 185 208 223 239 253 252 254 254 245 240 243 246 244
274 275 276 277 279 280 281 283 283 285 286 287 289 290 292 293 293 294 295 297 298 294 286 278 272 259 255 263 267 269 269 265 261 254 246 243 238 233 234 234 233 236 236 241 245 241 239 235 240 252 237 235 244 245 262 266 266 250 221 246 262 263 269 258 205 199 199 190 207 216 237 254 258 270 260 224 214 221 239 257 263 264 261 254 243 241 245 244
279 278 278 277 278 279 280 281 281 282 284 285 287 289 290 291 292 292 292 292 289 284 278 252 225 249 250 249 253 259 270 273 262 250 242 233 229 224 222 225 229 229 227 240 236 215 216 215 223 264 243 229 227 221 231 243 263 282 269 262 274 270 263 263 268 163 177 201 233 229 234 249 255 263 268 261 244 235 243 257 264 266 264 261 252 243 242 243
282 282 282 281 281 280 280 281 280 281 282 283 286 288 290 292 291 289 284 277 258 246 271 219 192 228 270 256 262 269 277 280 262 246 236 226 223 218 217 219 217 215 216 221 205 193 197 203 220 251 245 228 220 213 221 242 261 284 289 287 286 283 270 270 278 149 182 211 231 237 245 255 259 260 264 267 265 261 261 263 264 265 266 264 257 249 241 242
281 282 283 284 283 283 284 283 281 282 282 283 285 288 292 291 288 285 267 245 238 242 259 237 217 246 270 276 278 278 275 272 262 244 234 226 215 211 215 209 202 214 226 229 200 179 192 222 233 238 242 242 238 230 233 250 268 284 287 281 275 276 272 272 274 154 184 230 243 247 253 259 263 265 265 268 270 270 270 268 263 263 266 265 259 254 245 242
282 283 283 284 284 285 286 285 284 283 284 284 286 289 285 267 263 277 262 254 258 258 257 251 246 251 259 265 267 269 267 266 260 246 239 225 204 203 202 193 203 222 222 223 198 150 191 227 237 241 251 260 271 266 254 257 267 270 268 273 272 267 267 273 272 145 164 224 258 262 265 264 263 265 266 265 264 262 263 264 264 266 270 269 263 257 250 241
285 285 285 285 284 286 286 286 286 285 285 284 284 282 268 263 263 265 272 279 270 259 253 253 251 251 256 258 259 262 257 254 253 242 238 220 202 207 194 186 216 229 195 189 180 190 212 235 245 247 255 270 290 287 268 262 261 261 255 260 265 264 271 272 233 132 163 221 268 279 277 274 270 265 262 258 255 252 252 256 263 269 272 270 265 262 253 233
289 287 288 286 285 288 289 288 289 287 286 283 280 276 268 268 267 263 267 276 270 260 254 253 251 251 253 254 257 255 243 240 244 239 238 219 196 205 204 196 225 229 187 194 212 217 222 239 250 250 233 240 254 235 242 255 248 243 238 245 256 257 269 269 205 140 205 222 273 292 282 274 268 258 250 246 245 247 247 252 262 266 264 264 264 264 249 226
298 295 291 290 292 293 292 291 291 288 286 282 278 271 267 266 263 269 271 264 266 258 254 252 248 246 246 248 252 245 233 236 235 235 235 214 187 197 211 214 231 234 218 218 222 227 239 242 195 169 187 233 248 214 214 240 240 232 227 235 250 252 259 266 311 346 263 236 260 303 286 267 256 248 242 235 234 243 245 248 259 261 260 262 265 266 251 224
309 305 303 303 303 304 302 299 293 287 285 282 276 266 264 262 250 275 289 268 253 233 247 247 239 243 242 241 243 232 228 238 232 233 227 205 187 183 205 214 222 236 232 228 230 239 247 232 129 183 207 210 233 234 220 222 246 243 223 230 245 257 267 274 319 350 302 267 152 345 305 275 225 233 242 196 189 224 231 233 245 253 258 262 266 265 251 226
314 312 314 313 313 319 318 311 301 295 290 278 270 255 245 228 231 307 318 279 252 193 202 214 212 228 228 230 224 205 221 248 232 232 223 203 197 189 198 203 208 244 244 232 239 248 244 188 135 227 228 206 228 251 233 208 240 252 228 249 254 261 272 278 298 312 285 283 318 48 313 286 228 209 236 210 194 198 196 226 237 243 250 253 262 266 251 236
311 312 314 314 318 325 324 314 301 297 286 272 258 217 208 179 133 3 344 280 256 163 144 172 183 188 192 205 188 172 224 235 208 218 206 200 199 196 220 204 192 235 215 210 251 231 194 182 182 217 223 223 228 249 230 198 224 249 30 357 289 261 265 266 277 259 261 291 284 158 239 275 274 218 218 223 221 211 209 238 244 241 240 241 254 264 257 248
305 307 308 309 315 321 320 311 300 283 263 262 234 190 176 146 124 77 288 275 258 124 134 167 173 187 185 175 174 175 332 123 157 198 190 193 192 191 230 227 229 234 176 190 237 216 154 189 199 189 196 224 222 260 209 191 215 261 65 39 67 75 265 234 252 258 273 293 276 194 181 265 283 207 193 211 218 223 226 237 246 250 247 241 246 257 258 255
298 300 301 304 308 311 312 310 300 275 256 240 201 181 156 143 132 75 244 258 195 114 133 156 164 186 163 154 183 208 331 45 49 177 176 190 191 186 249 242 251 258 196 213 242 286 64 142 209 187 197 228 199 39 13 204 211 143 115 87 83 97 108 173 247 273 282 274 259 208 167 238 285 204 164 191 206 217 225 231 238 246 251 252 245 245 251 252
291 293 295 298 300 300 304 305 295 280 244 199 180 159 141 144 152 246 231 241 323 92 110 148 165 160 151 155 204 221 230 260 79 134 159 188 195 203 287 274 260 269 234 241 261 270 117 89 21 217 216 222 99 66 18 13 108 133 144 117 123 194 174 213 242 268 278 265 245 201 179 208 274 192 144 174 195 198 202 217 238 250 254 255 241 234 243 248
280 283 285 287 290 291 294 292 291 285 225 190 168 150 147 151 208 239 232 278 347 158 127 165 173 147 165 181 199 191 200 222 147 154 176 167 186 205 226 214 202 244 251 248 254 245 198 172 200 209 179 117 104 89 47 43 107 159 179 208 232 233 201 220 219 165 250 264 224 183 186 199 235 217 153 183 192 187 181 212 257 269 267 265 247 234 245 245
273 274 275 277 280 278 277 277 283 281 225 190 166 159 169 209 226 234 225 65 16 194 159 176 179 173 192 204 210 175 182 207 179 182 198 174 187 199 202 203 175 199 245 227 226 228 212 208 190 150 151 172 171 145 102 104 189 202 198 200 243 255 240 239 223 191 237 254 131 160 191 207 234 246 237 236 206 189 193 234 261 262 262 267 250 237 251 242
270 268 266 266 268 267 268 272 271 266 223 185 173 176 198 237 232 225 193 165 209 178 138 151 168 175 185 199 212 174 175 207 176 187 204 184 209 215 211 219 205 234 255 210 222 219 221 222 172 162 188 187 186 195 207 193 182 193 192 185 211 239 257 259 246 240 247 247 123 127 185 239 258 255 233 234 226 209 213 234 246 249 251 255 243 241 255 243
264 263 261 260 261 260 261 261 256 249 210 184 183 192 199 232 239 190 186 207 207 103 91 96 149 172 191 207 197 169 196 214 166 179 200 183 212 226 216 221 217 237 275 224 262 219 246 273 176 170 168 170 187 211 215 134 171 196 195 196 218 229 247 260 259 259 271 291 239 152 177 250 275 281 199 221 226 213 215 230 238 244 247 249 243 241 250 242
263 263 261 256 251 252 254 248 239 227 195 186 199 208 200 232 239 192 212 211 179 135 117 102 155 178 213 222 197 193 219 216 168 174 197 194 211 217 208 211 204 200 181 216 249 183 241 266 165 136 113 158 182 216 172 112 181 193 181 207 231 234 229 249 272 273 303 314 274 194 221 252 270 278 178 176 209 195 202 227 232 238 244 244 241 241 245 241
263 263 260 253 244 246 248 236 225 211 190 185 211 220 217 238 235 223 239 195 181 159 135 164 194 196 227 214 198 212 216 200 178 181 206 210 227 228 215 205 191 190 187 190 214 177 233 273 135 111 31 151 164 265 164 185 220 162 176 205 215 293 228 245 270 286 114 278 268 224 249 263 274 268 188 154 179 179 191 224 223 228 239 240 239 242 244 242
261 260 256 252 246 245 241 230 223 206 188 183 209 220 227 244 240 252 264 109 193 157 154 218 208 194 221 217 205 196 176 177 186 189 210 201 225 223 210 212 185 187 200 199 216 236 231 272 169 163 240 139 40 359 141 301 302 145 187 205 115 44 327 248 263 268 244 263 271 263 266 268 274 271 166 164 187 188 203 226 224 226 235 239 241 244 248 247
263 260 254 254 252 246 238 227 216 198 183 184 228 228 233 236 234 237 194 138 147 167 193 234 209 189 216 233 223 178 164 185 179 183 216 201 215 197 183 202 190 188 207 208 220 270 207 257 233 161 322 118 100 244 190 216 239 184 293 293 92 216 208 204 226 246 254 258 269 273 275 269 258 258 190 183 192 198 214 222 219 223 227 233 240 245 250 252
264 256 251 255 253 246 237 221 202 187 175 184 221 227 241 240 239 236 197 190 209 200 216 235 227 219 225 236 240 170 169 188 172 176 212 204 212 180 165 185 194 197 206 197 205 243 180 225 245 37 8 127 138 226 206 179 185 239 311 267 215 247 226 210 211 226 242 247 266 278 282 275 253 247 237 199 186 200 216 212 206 216 222 225 234 242 248 251
265 252 248 254 251 243 229 207 186 178 178 200 216 230 255 254 257 247 221 220 224 219 234 240 235 238 235 234 244 207 194 201 189 196 209 195 209 194 171 178 188 202 203 192 204 229 155 217 238 28 14 208 196 205 195 187 181 182 226 217 196 200 258 285 246 232 236 244 256 266 273 275 273 171 219 186 178 208 221 216 212 207 215 223 231 239 246 251
274 257 249 251 251 232 208 189 174 182 192 218 229 245 260 264 281 262 236 238 244 246 255 253 243 246 246 239 240 225 210 212 210 216 218 203 220 224 176 183 187 161 173 194 212 210 177 210 222 204 206 224 222 201 196 201 190 183 196 199 196 189 180 233 238 224 219 236 243 248 262 266 270 96 142 160 162 235 247 238 238 212 209 221 229 239 250 256
274 269 260 249 246 211 191 179 184 199 193 220 223 234 253 256 275 270 238 234 243 259 284 280 254 250 249 246 245 233 208 215 217 217 224 217 225 229 175 182 187 157 151 193 211 201 189 180 221 228 227 234 239 197 213 248 229 222 218 206 205 191 185 215 227 215 196 218 242 246 253 263 266 98 118 176 109 286 276 254 253 236 220 226 236 247 256 257
254 260 263 251 239 209 190 175 269 203 218 251 231 239 249 240 258 266 242 229 230 242 258 251 246 242 245 250 252 250 235 235 228 223 238 239 234 241 200 185 188 169 171 205 202 183 133 95 227 242 265 281 283 58 29 2 297 248 242 217 213 207 206 221 233 239 204 207 230 237 243 261 268 106 157 282 283 272 260 251 256 256 246 245 248 250 251 248
254 249 235 218 211 202 192 185 216 209 240 265 250 250 249 245 244 242 236 223 216 218 230 240 245 237 243 255 257 259 255 248 245 242 250 253 242 254 242 215 203 182 191 226 160 162 167 185 212 233 254 265 267 246 227 198 195 223 234 220 218 220 218 231 258 291 247 236 239 246 250 256 260 201 280 275 265 237 233 249 260 263 259 254 245 239 239 239
269 247 211 196 193 194 200 211 208 211 220 229 242 244 242 249 241 237 240 233 227 232 236 244 260 242 240 243 245 252 251 248 254 253 255 264 264 272 255 238 224 200 218 268 135 159 185 205 193 220 235 222 232 241 233 156 186 216 230 220 215 215 213 220 230 220 237 242 241 246 254 259 270 286 287 280 275 268 265 269 270 260 253 248 234 227 231 235
270 246 199 193 195 204 221 224 210 204 206 217 232 233 234 244 243 240 242 239 234 234 237 245 260 255 239 229 237 247 244 241 244 248 253 256 257 308 358 250 241 226 235 257 199 166 171 221 208 226 237 228 233 242 245 163 175 191 213 214 207 210 214 217 227 228 237 245 244 245 252 262 271 279 283 283 284 286 285 283 279 260 243 236 230 230 233 238
265 238 184 184 203 222 241 238 225 209 202 210 204 203 224 231 238 238 229 224 225 224 233 247 214 221 232 223 233 246 241 240 241 244 253 255 257 273 291 278 253 240 241 250 216 194 274 237 225 234 238 236 241 245 247 246 222 197 198 204 205 209 210 211 224 231 236 249 250 246 251 260 264 268 274 277 280 284 281 279 280 277 265 249 238 237 238 242
251 260 237 220 208 211 233 235 234 235 225 218 207 210 227 228 229 227 218 223 223 208 208 233 219 222 228 223 228 237 236 244 244 238 246 252 254 262 263 243 220 214 214 213 193 194 238 241 235 241 244 245 250 253 256 259 253 234 211 207 210 208 205 216 229 230 226 241 251 251 255 261 261 259 265 271 277 278 275 278 282 285 282 272 248 241 249 255
245 263 271 265 249 224 228 226 225 227 226 223 221 221 227 230 229 226 215 220 227 206 203 223 224 222 225 225 227 231 228 234 240 233 229 233 238 244 248 241 222 186 182 189 188 174 214 245 241 247 257 257 256 259 261 262 265 263 250 240 239 234 228 232 237 228 220 238 248 251 255 259 260 260 263 267 270 271 275 279 280 282 283 275 263 267 277 279
246 260 279 284 277 279 272 247 233 236 231 227 231 226 228 234 234 233 221 207 215 205 202 220 230 224 224 224 224 229 228 228 238 237 226 224 227 224 231 232 220 180 163 172 194 182 204 235 240 248 260 255 249 252 252 254 261 268 269 276 280 268 256 251 251 233 225 240 246 245 252 258 259 260 261 262 265 269 274 275 274 280 282 279 277 282 283 282
261 271 282 291 286 277 280 262 237 245 235 222 231 232 236 239 236 241 238 222 223 220 203 215 226 226 230 230 226 230 230 228 235 237 236 242 241 218 225 223 194 182 175 170 189 188 205 231 232 231 247 244 240 243 245 249 261 270 276 274 261 255 256 257 256 247 239 245 250 248 250 250 250 256 259 261 265 268 268 268 271 276 276 277 283 284 277 276
274 283 285 291 290 258 270 268 242 245 239 221 224 223 231 240 238 245 250 235 232 235 230 224 223 226 235 233 230 234 234 233 238 240 244 254 256 227 221 221 194 176 175 183 196 180 188 217 215 215 239 243 238 242 247 254 265 265 253 246 244 246 250 253 255 253 249 247 249 247 239 234 243 254 260 264 266 264 261 262 267 269 271 276 281 277 272 273